Soldotna, AK

11:54 AM AKDT on September 30, 2016 (GMT -0800)
Soldotna

Weather History for PASX - March, 2013

Change the Weather History Date:

Wednesday, March 27, 2013

  Actual Average Record
Temperature  
Mean Temperature 3 °F -  
Max Temperature 19 °F 35 °F 49 °F (1954)
Min Temperature -13 °F 21 °F -13 °F (2013)
Degree Days  
Heating Degree Days 62    
Moisture  
Dew Point -2 °F    
Average Humidity 70    
Maximum Humidity 92    
Minimum Humidity 54    
Precipitation  
Precipitation 0.00 in - - ()
Sea Level Pressure  
Sea Level Pressure 30.21 in    
Wind  
Wind Speed 2 mph (NE)    
Max Wind Speed 12 mph    
Max Gust Speed -    
Visibility 10 miles    
Events      
Averages and records for this station are not official NWS values.
T = Trace of Precipitation, MM = Missing Value Source: NWS Daily Summary

Daily Weather History Graph

Daily Weather History Graph

Search for Another Location

Airport or City:

Trip Planner

Search our weather history database for the weather conditions in past years. The results will help you decide how hot, cold, wet, or windy it might be!

Date:

Astronomy

Mar. 27, 2013 Rise Set
Actual Time 7:42 AM AKDT 8:37 PM AKDT
Civil Twilight 6:59 AM AKDT 9:20 PM AKDT
Nautical Twilight 6:07 AM AKDT 10:13 PM AKDT
Astronomical Twilight 5:07 AM AKDT 11:14 PM AKDT
Moon 9:59 PM AKDT (3/27) 7:24 AM AKDT (3/27)
Length of Visible Light 14h 20m
Length of Day
12h 55m
Full, 100% of the Moon is Illuminated
Mar 27
Full
Apr 2
Last Quarter
Apr 10
New
Apr 18
First Quarter
Apr 25
Full

Hourly Weather History & Observations

Time (AKDT) Temp. Windchill Dew Point Humidity Pressure Visibility Wind Dir Wind Speed Gust Speed Precip Events Conditions
12:16 AM -0.4 °F - -7.6 °F 72% 30.17 in 10.0 mi Calm Calm - N/A   Overcast
12:36 AM -0.4 °F - -7.6 °F 72% 30.17 in 10.0 mi Calm Calm - N/A   Overcast
12:56 AM -0.4 °F - -7.6 °F 72% 30.17 in 10.0 mi Calm Calm - N/A   Overcast
1:16 AM -0.4 °F - -7.6 °F 72% 30.18 in 10.0 mi Calm Calm - N/A   Overcast
1:36 AM -2.2 °F - -7.6 °F 78% 30.18 in 10.0 mi Calm Calm - N/A   Overcast
1:56 AM -4.0 °F - -9.4 °F 78% 30.18 in 10.0 mi Calm Calm - N/A   Overcast
2:16 AM -4.0 °F - -7.6 °F 85% 30.18 in 10.0 mi Calm Calm - N/A   Overcast
2:36 AM -2.2 °F - -9.4 °F 71% 30.18 in 10.0 mi Calm Calm - N/A   Overcast
2:56 AM -4.0 °F - -7.6 °F 85% 30.18 in 10.0 mi Calm Calm - N/A   Overcast
3:16 AM -5.8 °F - -11.2 °F 77% 30.19 in 10.0 mi Calm Calm - N/A   Overcast
3:36 AM -5.8 °F - -11.2 °F 77% 30.19 in 10.0 mi Calm Calm - N/A   Mostly Cloudy
3:56 AM -7.6 °F - -11.2 °F 84% 30.19 in 10.0 mi Calm Calm - N/A   Clear
4:16 AM -7.6 °F - -14.8 °F 71% 30.19 in 10.0 mi Calm Calm - N/A   Clear
4:36 AM -9.4 °F - -14.8 °F 77% 30.20 in 10.0 mi Calm Calm - N/A   Clear
4:56 AM -9.4 °F - -16.6 °F 71% 30.20 in 10.0 mi Calm Calm - N/A   Clear
5:16 AM -9.4 °F - -13.0 °F 84% 30.21 in 10.0 mi Calm Calm - N/A   Clear
5:36 AM -9.4 °F - -16.6 °F 71% 30.21 in 10.0 mi Calm Calm - N/A   Clear
5:56 AM -11.2 °F - -16.6 °F 77% 30.21 in 10.0 mi Calm Calm - N/A   Scattered Clouds
6:16 AM -11.2 °F - -16.6 °F 77% 30.21 in 10.0 mi Calm Calm - N/A   Overcast
6:36 AM -11.2 °F - -16.6 °F 77% 30.22 in 10.0 mi Calm Calm - N/A   Overcast
6:56 AM -11.2 °F - -16.6 °F 77% 30.21 in 10.0 mi Calm Calm - N/A   Overcast
7:16 AM -11.2 °F - -14.8 °F 84% 30.21 in 10.0 mi Calm Calm - N/A   Overcast
7:36 AM -11.2 °F - -18.4 °F 70% 30.22 in 9.0 mi Calm Calm - N/A   Overcast
7:56 AM -13.0 °F - -16.6 °F 84% 30.22 in 10.0 mi Calm Calm - N/A   Overcast
8:16 AM -11.2 °F -20.6 °F -16.6 °F 77% 30.22 in 10.0 mi NE 3.5 mph - N/A   Overcast
8:36 AM -11.2 °F -20.6 °F -16.6 °F 77% 30.23 in 10.0 mi NE 3.5 mph - N/A   Overcast
8:56 AM -9.4 °F - -11.2 °F 92% 30.23 in 9.0 mi Calm Calm - N/A   Overcast
9:16 AM -9.4 °F - -13.0 °F 84% 30.23 in 10.0 mi Calm Calm - N/A   Overcast
9:36 AM -5.8 °F - -7.6 °F 92% 30.23 in 10.0 mi Calm Calm - N/A   Mostly Cloudy
9:56 AM -2.2 °F - -5.8 °F 85% 30.23 in 10.0 mi Calm Calm - N/A   Mostly Cloudy
10:16 AM 3.2 °F - 1.4 °F 92% 30.23 in 10.0 mi Calm Calm - N/A   Overcast
10:36 AM 5.0 °F - -0.4 °F 78% 30.23 in 10.0 mi Calm Calm - N/A   Overcast
10:56 AM 8.6 °F 2.0 °F 5.0 °F 85% 30.24 in 10.0 mi ESE 3.5 mph - N/A   Overcast
11:16 AM 10.4 °F 2.2 °F 5.0 °F 79% 30.24 in 10.0 mi ESE 4.6 mph - N/A   Overcast
11:36 AM 12.2 °F 4.3 °F 6.8 °F 79% 30.24 in 10.0 mi NE 4.6 mph - N/A   Partly Cloudy
11:56 AM 12.2 °F 4.3 °F 3.2 °F 67% 30.24 in 10.0 mi NNE 4.6 mph - N/A   Clear
12:16 PM 12.2 °F 1.7 °F 5.0 °F 73% 30.24 in 10.0 mi NE 6.9 mph - N/A   Clear
12:36 PM 14.0 °F 3.9 °F 3.2 °F 62% 30.24 in 10.0 mi NE 6.9 mph - N/A   Clear
12:56 PM 15.8 °F 6.1 °F 5.0 °F 62% 30.24 in 10.0 mi North 6.9 mph - N/A   Clear
1:16 PM 15.8 °F 7.2 °F 5.0 °F 62% 30.24 in 10.0 mi NNE 5.8 mph - N/A   Clear
1:36 PM 15.8 °F 4.2 °F 5.0 °F 62% 30.24 in 10.0 mi NE 9.2 mph - N/A   Clear
1:56 PM 17.6 °F 9.3 °F 5.0 °F 58% 30.24 in 10.0 mi NNE 5.8 mph - N/A   Clear
2:16 PM 17.6 °F 5.7 °F 5.0 °F 58% 30.23 in 10.0 mi NNE 10.4 mph - N/A   Clear
2:36 PM 17.6 °F 9.3 °F 5.0 °F 58% 30.23 in 10.0 mi North 5.8 mph - N/A   Clear
2:56 PM 17.6 °F 8.2 °F 5.0 °F 58% 30.23 in 10.0 mi NE 6.9 mph - N/A   Clear
3:16 PM 17.6 °F 8.2 °F 6.8 °F 63% 30.23 in 10.0 mi NNE 6.9 mph - N/A   Clear
3:36 PM 19.4 °F 10.4 °F 5.0 °F 54% 30.23 in 10.0 mi ENE 6.9 mph - N/A   Clear
3:56 PM 19.4 °F 11.5 °F 6.8 °F 58% 30.23 in 10.0 mi North 5.8 mph - N/A   Partly Cloudy
4:16 PM 19.4 °F 9.5 °F 6.8 °F 58% 30.23 in 10.0 mi North 8.1 mph - N/A   Mostly Cloudy
4:36 PM 19.4 °F 12.8 °F 6.8 °F 58% 30.23 in 10.0 mi NNE 4.6 mph - N/A   Overcast
4:56 PM 19.4 °F 7.9 °F 5.0 °F 54% 30.23 in 10.0 mi NNE 10.4 mph - N/A   Overcast
5:16 PM 19.4 °F 8.6 °F 6.8 °F 58% 30.22 in 10.0 mi NE 9.2 mph - N/A   Overcast
5:36 PM 19.4 °F 11.5 °F 6.8 °F 58% 30.21 in 10.0 mi NNE 5.8 mph - N/A   Overcast
5:56 PM 19.4 °F 9.5 °F 5.0 °F 54% 30.21 in 10.0 mi NNE 8.1 mph - N/A   Overcast
6:16 PM 19.4 °F 7.2 °F 6.8 °F 58% 30.21 in 10.0 mi NE 11.5 mph - N/A   Overcast
6:36 PM 19.4 °F 9.5 °F 6.8 °F 58% 30.21 in 10.0 mi NNE 8.1 mph - N/A   Overcast
6:56 PM 19.4 °F 8.6 °F 6.8 °F 58% 30.21 in 10.0 mi NE 9.2 mph - N/A   Overcast
7:16 PM 19.4 °F 11.5 °F 6.8 °F 58% 30.20 in 10.0 mi NNE 5.8 mph - N/A   Overcast
7:36 PM 17.6 °F 8.2 °F 6.8 °F 63% 30.21 in 10.0 mi NNE 6.9 mph - N/A   Overcast
7:56 PM 17.6 °F 8.2 °F 6.8 °F 63% 30.21 in 10.0 mi North 6.9 mph - N/A   Overcast
8:16 PM 17.6 °F 8.2 °F 6.8 °F 63% 30.20 in 10.0 mi NNE 6.9 mph - N/A   Overcast
8:36 PM 17.6 °F 10.7 °F 6.8 °F 63% 30.20 in 10.0 mi NNE 4.6 mph - N/A   Overcast
8:56 PM 17.6 °F 9.3 °F 8.6 °F 68% 30.20 in 10.0 mi NNE 5.8 mph - N/A   Overcast
9:16 PM 17.6 °F 10.7 °F 6.8 °F 63% 30.20 in 10.0 mi NNE 4.6 mph - N/A   Overcast
9:36 PM 17.6 °F 12.3 °F 6.8 °F 63% 30.20 in 10.0 mi NNE 3.5 mph - N/A   Overcast
9:56 PM 17.6 °F 10.7 °F 5.0 °F 58% 30.20 in 10.0 mi NE 4.6 mph - N/A   Overcast
10:16 PM 17.6 °F 9.3 °F 6.8 °F 63% 30.19 in 10.0 mi NE 5.8 mph - N/A   Overcast
10:36 PM 17.6 °F 10.7 °F 6.8 °F 63% 30.19 in 10.0 mi NE 4.6 mph - N/A   Mostly Cloudy
10:56 PM 17.6 °F 9.3 °F 6.8 °F 63% 30.19 in 10.0 mi NE 5.8 mph - N/A   Overcast
11:16 PM 17.6 °F 9.3 °F 8.6 °F 68% 30.19 in 5.0 mi NE 5.8 mph - N/A   Overcast
11:36 PM 17.6 °F 9.3 °F 8.6 °F 68% 30.19 in 6.0 mi NE 5.8 mph - N/A   Overcast
11:56 PM 17.6 °F 10.7 °F 8.6 °F 68% 30.19 in 5.0 mi NE 4.6 mph - N/A   Overcast